This is the latest recevied weather packets stored in our database for station/object LU3HGB-WX. If no packets are shown the sender has not sent any weather packets the latest 10 day(s).
| Time | Temp. | Humidity | Pressure | Rain* | Wind** | Luminosity | Snow |
|---|---|---|---|---|---|---|---|
| 1787978259 | 13.33° C | 67% | 1016 hPa | 0 mm | - | 0 W/m² | - |
| 1787977959 | 13.89° C | 61% | 1015 hPa | 0 mm | - | 0 W/m² | - |
| 1787977659 | 13.89° C | 60% | 1015 hPa | 2.54 mm | - | 0 W/m² | - |
| 1787977359 | 14.44° C | 57% | 1015 hPa | 0.51 mm | - | 0 W/m² | - |
| 1787977060 | 13.89° C | 54% | 1014 hPa | 0 mm | - | 0 W/m² | - |
| 1787976760 | 12.78° C | 51% | 1015 hPa | 0 mm | - | 0 W/m² | - |
| 1787976459 | 11.67° C | 64% | 1015 hPa | 0.25 mm | - | 0 W/m² | - |
| 1787976161 | 11.67° C | 62% | 1015 hPa | 0 mm | - | 0 W/m² | - |
| 1787975860 | 11.11° C | 64% | 1015 hPa | 0 mm | - | 0 W/m² | - |
| 1787975559 | 11.11° C | 66% | 1014 hPa | 0 mm | - | 0 W/m² | - |
| 1787975259 | 11.67° C | 65% | 1014 hPa | 0 mm | - | 0 W/m² | - |
| 1787974960 | 11.67° C | 66% | 1014 hPa | 0 mm | - | 0 W/m² | - |
| 1787974660 | 11.67° C | 67% | 1014 hPa | 0 mm | - | 0 W/m² | - |
| 1787974360 | 11.67° C | 63% | 1014 hPa | 0 mm | - | 0 W/m² | - |
| 1787974060 | 11.67° C | 63% | 1014 hPa | 0 mm | - | 0 W/m² | - |
| 1787973760 | 11.67° C | 61% | 1014 hPa | 0 mm | - | 0 W/m² | - |
| 1787973459 | 11.67° C | 62% | 1014 hPa | 0 mm | - | 0 W/m² | - |
| 1787973160 | 11.67° C | 62% | 1014 hPa | 0 mm | - | 0 W/m² | - |
| 1787972859 | 11.67° C | 62% | 1014 hPa | 0 mm | - | 0 W/m² | - |
| 1787972559 | 11.67° C | 64% | 1014 hPa | 0 mm | - | 0 W/m² | - |
| 1787972322 | 11.67° C | 62% | 1014 hPa | 0 mm | - | 0 W/m² | - |
| 1787971960 | 11.67° C | 62% | 1014 hPa | 0 mm | - | 0 W/m² | - |
| 1787971659 | 12.22° C | 61% | 1014 hPa | 0 mm | - | 0 W/m² | - |
| 1787971359 | 12.22° C | 58% | 1014 hPa | 0 mm | - | 0 W/m² | - |
| 1787971060 | 12.22° C | 58% | 1014 hPa | 0 mm | - | 0 W/m² | - |
* Rain latest hour (hover to see other rain measurements)
** Current wind speed in m/s (hover to see current wind gust speed)